Wind_Speed
7 6 6 6 5 6 6 8 10 13 17 18 19 18 16 15 13 11 11 10 7 8 9 9 9 9 8 7 6 6 5 5 5 5 6 6 6 6 6 6 6 6 5 5 5 5 4 3 2
6 6 6 6 6 7 9 10 13 15 17 18 20 18 16 15 13 12 11 10 9 9 10 10 11 10 9 8 8 6 5 5 5 5 6 6 6 7 7 7 7 6 6 6 6 6 5 4 3
6 6 6 6 6 8 9 13 16 19 19 20 20 17 16 14 12 11 11 11 10 10 10 11 11 11 11 10 9 8 7 6 6 6 6 6 7 7 7 7 7 7 6 6 6 6 6 5 5
7 6 5 5 7 9 11 15 19 22 23 22 20 19 18 14 12 11 10 10 11 13 13 12 13 12 12 11 10 8 7 7 6 6 6 6 7 8 8 8 8 7 7 7 6 6 6 6 5
6 5 5 7 9 10 13 17 20 22 23 22 20 19 18 15 13 11 10 11 11 13 13 13 13 13 13 12 10 9 7 6 6 6 6 6 7 8 8 8 8 8 7 7 7 7 7 6 6
5 5 6 8 9 11 14 17 20 22 23 22 20 19 20 17 14 12 12 11 12 13 13 15 14 14 14 12 11 9 8 7 7 6 7 7 7 8 8 8 8 8 8 8 8 7 6 6 6
5 6 7 7 8 11 15 18 21 22 23 21 20 19 19 18 15 13 12 13 13 13 15 16 16 15 14 12 11 10 9 8 7 7 7 7 7 8 8 8 8 8 8 8 8 7 6 6 6
5 6 7 7 8 11 15 18 20 22 21 20 19 19 19 17 15 14 13 12 12 13 14 17 17 16 15 13 11 9 9 8 8 8 7 7 8 8 9 9 8 8 8 8 7 7 7 7 6
5 5 5 6 8 11 15 18 20 20 20 21 21 21 21 18 15 14 13 13 13 13 14 17 18 17 16 14 12 10 9 9 8 8 7 8 9 9 9 8 8 8 8 7 7 7 8 7 6
5 5 6 7 9 11 14 17 19 20 20 21 21 21 21 19 17 15 14 13 13 13 16 18 18 19 17 15 13 11 10 9 9 8 8 8 9 9 8 8 8 8 8 7 8 8 8 7 6
6 5 6 7 10 12 15 17 19 21 21 23 22 21 21 20 16 14 13 12 12 13 15 18 19 19 19 17 14 12 11 9 9 8 8 9 9 9 8 7 7 7 7 7 7 8 8 7 6
5 5 6 7 9 12 16 18 20 21 22 23 22 21 20 18 16 14 13 13 13 14 16 18 18 19 18 17 14 13 12 10 8 8 8 8 9 8 7 6 6 6 6 6 7 7 7 7 6
5 5 6 8 10 14 16 18 20 22 23 23 22 21 20 17 14 13 12 13 14 16 18 19 18 18 19 17 15 13 12 11 9 8 8 7 7 7 6 5 5 5 4 5 5 5 5 5 4
4 5 6 9 12 15 17 19 22 23 23 23 22 21 19 15 14 12 12 11 14 17 18 18 19 19 19 17 15 14 13 11 9 8 7 7 6 6 5 4 4 3 3 3 3 3 3 3 3
3 3 6 10 14 17 19 20 22 23 23 22 22 21 20 17 15 12 10 11 12 15 16 17 19 19 18 15 15 15 13 11 9 8 7 7 6 5 5 4 3 2 2 2 2 2 2 2 2
4 5 8 12 15 19 20 20 22 22 22 22 22 21 18 16 14 12 10 8 10 13 14 16 18 20 18 15 15 15 13 11 9 8 7 6 6 5 4 4 3 3 2 2 2 2 1 1 1
6 7 10 13 17 20 20 20 20 21 22 22 21 20 16 14 12 11 8 7 8 12 13 15 17 19 18 16 15 15 13 11 10 9 8 7 6 5 5 5 4 4 3 2 2 1 1 0 0
6 7 10 13 17 20 21 20 19 20 22 21 19 19 17 14 12 11 8 6 7 10 13 15 17 18 17 16 15 15 14 12 11 10 9 8 8 7 7 6 5 4 4 3 2 1 1 1 1
7 8 10 14 16 19 20 19 18 20 19 18 18 18 17 15 13 11 7 4 5 8 12 15 15 17 16 16 15 15 14 12 11 11 10 9 8 8 8 7 6 5 4 3 2 2 2 1 1
6 8 10 14 17 20 19 19 19 18 17 16 16 16 15 15 14 10 7 2 3 7 10 13 14 16 16 16 15 15 14 13 12 11 11 11 10 9 9 8 7 6 5 4 3 2 2 2 2
5 8 12 15 18 20 21 20 19 16 12 13 13 14 14 14 13 12 8 3 2 5 9 10 12 15 16 16 15 15 14 14 12 12 12 12 11 10 9 9 8 7 5 5 4 3 2 2 2
7 9 13 16 17 19 19 20 17 15 11 10 12 13 13 13 13 11 7 3 1 5 7 10 12 14 15 16 15 15 15 14 13 13 13 12 11 11 10 9 8 7 6 5 4 3 2 1 1
9 11 14 15 16 18 19 20 16 13 8 9 10 12 12 12 12 9 6 3 1 3 6 9 12 14 15 15 15 15 15 14 13 13 13 12 12 11 11 10 9 8 8 6 5 4 3 3 2
11 13 15 16 16 17 19 19 15 10 8 9 10 11 11 11 11 8 5 3 1 2 5 8 12 13 14 15 15 14 15 15 14 14 13 13 13 12 12 11 10 10 9 8 7 6 6 5 5
13 15 16 16 16 17 18 17 15 11 9 10 10 11 11 10 8 7 6 3 2 3 5 8 10 12 14 14 14 15 15 15 15 14 14 14 14 13 12 12 11 11 11 10 9 9 9 9 8
13 15 16 17 17 18 18 16 16 10 9 9 11 11 11 8 6 6 5 4 3 3 4 7 10 11 12 13 14 15 15 15 15 14 15 15 15 14 13 13 13 12 12 12 12 12 12 12 12
15 14 14 17 17 18 17 16 15 11 10 9 9 10 10 7 6 5 5 4 3 3 4 6 9 11 12 13 14 14 15 16 15 15 16 16 16 15 15 15 14 14 15 14 14 14 14 14 14
17 15 15 17 18 19 19 17 16 14 13 11 9 9 8 7 4 3 3 3 2 2 3 5 7 9 10 12 13 14 15 15 15 15 16 16 16 17 17 16 17 17 17 17 17 17 17 17 17
19 18 17 17 20 21 20 19 16 15 14 12 10 8 7 6 4 3 2 1 1 0 2 2 4 6 9 11 11 13 14 15 16 16 16 16 17 18 18 18 19 19 19 19 20 20 20 20 20
23 21 19 20 21 21 21 20 17 16 13 12 10 8 7 6 5 4 3 2 2 2 2 4 5 6 8 9 11 13 14 15 16 17 18 18 19 20 20 20 20 21 21 22 22 23 23 23 23
Wind_Direction
360 358 356 352 348 346 337 341 348 342 339 333 328 321 312 310 308 301 290 278 257 239 215 199 199 204 207 206 208 217 237 256 273 287 298 304 307 309 310 312 313 313 312 308 307 309 311 319 327
356 352 348 342 348 336 330 341 341 339 335 332 328 318 312 310 306 298 285 273 259 236 213 205 201 204 207 208 206 213 231 247 261 276 290 298 303 304 305 306 305 305 304 300 298 300 301 305 307
350 345 339 338 332 324 335 343 340 338 332 331 328 321 316 313 308 296 282 266 256 232 216 210 204 206 208 207 208 217 228 248 256 267 283 294 297 299 299 300 298 298 298 297 297 296 295 295 294
350 347 341 327 317 332 343 343 336 333 329 328 325 321 316 311 310 294 280 268 253 235 223 215 207 207 209 208 210 218 228 247 249 256 275 287 293 295 295 294 291 292 294 295 297 297 295 290 285
347 339 323 308 312 332 341 338 331 328 325 324 323 323 319 314 307 293 285 275 257 238 225 215 212 209 210 208 212 217 228 239 243 252 270 282 288 289 290 290 290 291 291 293 296 298 293 287 282
336 315 292 300 314 336 338 331 325 324 323 323 323 319 314 312 304 294 289 274 251 235 224 215 215 211 208 207 210 217 228 241 245 253 268 278 282 286 287 289 291 291 290 291 295 297 294 288 281
306 293 287 306 334 343 335 330 327 325 324 326 325 320 316 312 303 296 288 280 254 236 226 213 212 210 208 208 211 218 229 239 243 253 267 274 278 284 286 288 290 288 286 286 288 291 292 289 284
300 295 298 323 343 338 332 328 327 325 328 329 328 323 319 313 304 295 292 281 255 236 222 208 208 207 208 211 215 219 226 235 241 255 265 271 275 281 284 286 286 283 280 281 283 286 290 288 281
305 303 318 338 345 338 331 329 329 332 333 331 327 323 321 313 304 294 288 278 258 243 227 210 205 206 210 213 212 217 226 233 241 253 264 270 273 278 281 283 280 280 278 279 281 283 284 285 279
299 315 336 344 344 339 335 334 332 334 335 332 329 324 320 315 305 294 286 272 256 241 227 212 208 206 208 210 211 216 224 232 241 253 263 269 272 276 278 277 276 274 274 277 278 278 280 282 282
303 325 339 343 341 339 339 340 342 340 337 336 331 325 318 314 307 298 289 269 249 233 223 216 212 206 207 208 212 218 225 231 241 253 262 268 270 272 273 273 273 275 271 271 274 275 278 281 283
312 336 340 346 344 342 344 344 347 344 339 337 334 327 323 317 307 299 285 267 243 225 219 214 209 208 209 208 213 221 226 230 237 249 258 263 263 263 265 272 275 274 271 270 271 271 277 281 282
324 344 346 343 340 343 346 347 346 343 342 340 337 334 326 320 311 301 284 268 242 226 218 210 209 212 208 208 214 219 227 229 234 242 250 257 259 256 258 265 269 271 272 271 272 275 280 280 280
341 350 352 348 341 345 347 348 347 346 344 342 341 337 332 325 319 306 286 271 238 219 214 213 214 212 210 210 214 219 223 226 229 236 241 246 248 247 248 248 254 256 262 269 266 268 277 279 275
306 333 345 347 346 346 345 348 347 346 346 344 343 339 334 330 325 316 291 268 237 217 217 214 214 206 206 206 213 215 219 223 227 231 235 241 238 229 227 229 230 230 230 236 236 243 254 265 262
280 312 333 341 340 343 342 346 345 346 346 346 344 343 337 335 329 321 300 265 234 219 217 210 209 203 203 204 211 213 217 221 225 224 229 228 217 210 207 201 190 188 180 184 201 219 233 252 265
291 320 335 339 338 336 337 339 340 347 346 344 346 346 345 345 337 325 301 267 234 221 213 209 203 195 200 204 207 212 214 216 218 216 214 210 205 199 191 181 174 172 171 170 174 172 151 122 65
289 322 334 332 332 328 328 332 335 340 343 346 347 346 349 347 344 334 318 272 235 215 205 199 197 197 200 203 207 207 207 209 210 209 206 204 201 196 189 182 182 179 177 175 171 157 134 120 106
300 322 325 321 320 316 317 322 328 334 339 345 348 350 352 353 347 342 343 300 224 200 194 191 197 199 200 202 204 203 204 204 209 206 201 200 198 192 187 182 182 180 179 179 175 159 138 128 123
296 314 311 311 312 312 313 317 326 328 337 346 352 356 354 354 356 352 356 341 213 196 190 188 201 202 198 199 200 202 205 204 209 205 201 201 196 191 187 185 185 186 187 187 182 169 154 138 119
280 299 302 307 310 313 315 319 326 328 334 350 355 358 356 355 356 359 359 23 126 168 181 188 195 196 198 199 200 202 205 207 207 203 200 196 195 192 190 190 191 194 196 195 189 179 164 145 128
272 283 292 299 306 309 315 320 323 322 326 348 355 359 2 359 358 359 2 25 125 161 173 186 194 196 197 196 198 198 202 203 200 199 195 193 193 194 196 198 199 202 207 207 202 196 189 173 166
260 274 285 293 301 307 314 322 329 323 329 350 356 357 2 3 2 1 3 29 89 177 185 187 192 197 196 194 195 196 199 196 194 196 196 196 197 200 204 207 208 212 216 217 218 219 228 239 254
252 267 279 289 296 304 312 325 332 333 340 358 1 0 2 2 5 11 17 39 79 164 183 183 186 191 190 191 193 194 195 196 197 199 201 203 206 210 213 214 216 220 224 227 231 238 246 256 266
250 263 275 283 294 305 313 321 329 324 337 354 2 3 2 4 10 21 33 56 89 130 162 173 175 181 185 190 193 197 200 199 201 204 209 210 212 217 219 221 223 227 232 237 241 247 254 261 268
247 261 273 285 295 306 312 321 331 337 338 348 0 6 4 8 13 24 39 56 80 122 152 166 176 180 184 190 195 198 200 204 208 212 216 216 218 222 225 228 231 235 240 244 248 252 257 263 268
250 262 273 282 291 299 305 314 326 340 340 337 356 4 2 2 9 21 36 55 69 100 143 165 176 182 189 194 196 200 206 210 213 216 218 222 225 228 231 236 239 243 247 250 253 256 260 263 267
254 265 267 274 284 292 298 304 315 329 341 339 346 359 358 351 352 15 25 35 57 101 141 167 178 187 193 199 203 207 209 212 216 218 221 226 231 234 238 242 245 249 251 254 256 258 261 265 268
252 259 262 272 281 287 290 295 305 317 330 337 340 353 353 347 334 334 336 351 3 69 153 171 191 198 204 207 210 213 216 217 219 222 226 232 237 240 243 247 250 252 255 258 259 261 263 266 269
253 255 261 269 277 283 283 291 297 306 314 324 333 342 339 333 322 310 305 293 285 277 228 210 208 207 213 218 222 223 224 224 228 231 235 239 243 246 248 250 251 254 257 260 262 265 266 269 271
Height
5907 5906 5905 5904 5904 5902 5900 5899 5897 5896 5895 5894 5892 5891 5890 5889 5890 5892 5889 5887 5888 5888 5889 5890 5892 5894 5896 5897 5898 5899 5900 5901 5901 5901 5901 5900 5900 5899 5899 5898 5897 5896 5895 5895 5894 5894 5893 5893 5892
5907 5905 5905 5903 5902 5900 5899 5898 5896 5895 5893 5891 5890 5889 5888 5887 5887 5887 5886 5885 5886 5887 5888 5889 5891 5892 5894 5896 5897 5898 5899 5900 5900 5901 5901 5900 5900 5899 5899 5898 5897 5896 5895 5894 5894 5893 5893 5893 5892
5907 5905 5904 5902 5900 5899 5897 5895 5894 5893 5891 5890 5888 5886 5886 5886 5885 5885 5884 5884 5884 5885 5886 5887 5889 5891 5893 5894 5896 5897 5898 5899 5900 5900 5900 5900 5900 5899 5898 5898 5897 5896 5895 5894 5894 5893 5893 5892 5892
5907 5905 5904 5902 5899 5897 5895 5894 5892 5891 5890 5888 5887 5885 5883 5883 5883 5882 5881 5881 5882 5883 5884 5885 5887 5889 5891 5893 5895 5896 5897 5898 5898 5899 5899 5899 5899 5899 5898 5897 5896 5895 5895 5894 5893 5893 5892 5892 5892
5906 5905 5903 5901 5898 5895 5894 5893 5892 5891 5889 5887 5885 5883 5880 5881 5880 5879 5879 5879 5879 5880 5881 5883 5885 5887 5889 5891 5893 5894 5896 5897 5897 5898 5898 5898 5898 5898 5897 5896 5895 5895 5894 5893 5893 5892 5892 5891 5891
5905 5904 5902 5900 5897 5895 5894 5892 5891 5890 5887 5885 5883 5881 5878 5878 5877 5877 5876 5876 5876 5876 5878 5880 5883 5885 5887 5889 5891 5893 5894 5895 5896 5897 5897 5897 5897 5897 5896 5895 5894 5894 5893 5892 5892 5891 5891 5890 5890
5905 5903 5901 5899 5897 5895 5894 5892 5890 5888 5885 5883 5881 5878 5875 5874 5874 5874 5873 5872 5872 5873 5874 5877 5880 5883 5885 5887 5889 5891 5892 5893 5895 5895 5895 5895 5895 5895 5895 5894 5893 5892 5892 5891 5891 5890 5890 5889 5889
5903 5902 5900 5898 5896 5895 5893 5891 5889 5886 5884 5881 5878 5875 5872 5871 5870 5870 5869 5868 5869 5869 5871 5874 5877 5881 5883 5886 5887 5889 5891 5892 5893 5894 5894 5894 5894 5894 5893 5893 5892 5891 5891 5890 5890 5889 5889 5888 5888
5902 5902 5899 5897 5895 5894 5892 5890 5888 5884 5881 5879 5876 5873 5870 5867 5866 5865 5866 5865 5865 5867 5869 5871 5874 5878 5881 5883 5885 5887 5889 5890 5891 5892 5892 5892 5892 5892 5892 5891 5891 5890 5890 5889 5889 5888 5888 5887 5887
5901 5900 5898 5896 5894 5893 5891 5889 5886 5882 5879 5876 5873 5870 5867 5864 5862 5862 5862 5862 5863 5864 5865 5868 5872 5875 5878 5881 5883 5885 5887 5888 5889 5890 5890 5890 5891 5890 5890 5890 5889 5888 5888 5888 5888 5887 5887 5886 5886
5899 5898 5896 5894 5893 5892 5890 5887 5884 5880 5877 5874 5871 5867 5864 5861 5859 5858 5858 5859 5860 5860 5863 5865 5869 5872 5875 5878 5881 5883 5884 5886 5887 5888 5888 5889 5889 5889 5888 5888 5888 5887 5887 5886 5886 5886 5885 5885 5885
5898 5896 5895 5893 5892 5890 5888 5885 5882 5878 5875 5871 5867 5864 5860 5858 5855 5854 5855 5855 5856 5857 5860 5862 5865 5869 5872 5875 5878 5880 5882 5884 5885 5886 5886 5886 5887 5887 5887 5887 5886 5886 5886 5885 5885 5885 5884 5884 5884
5897 5895 5894 5892 5890 5888 5886 5883 5880 5876 5872 5868 5864 5860 5857 5854 5851 5850 5851 5851 5851 5853 5855 5858 5862 5865 5869 5872 5875 5878 5879 5881 5882 5883 5884 5885 5885 5885 5886 5886 5885 5885 5885 5884 5884 5884 5884 5883 5883
5895 5894 5893 5891 5889 5886 5884 5881 5877 5873 5870 5865 5861 5857 5854 5849 5848 5847 5846 5846 5847 5850 5852 5854 5858 5862 5866 5869 5872 5875 5877 5879 5880 5881 5882 5883 5883 5884 5884 5884 5884 5884 5884 5884 5883 5883 5883 5883 5882
5894 5893 5891 5889 5886 5884 5882 5880 5876 5871 5868 5864 5859 5855 5851 5847 5845 5844 5843 5844 5843 5846 5849 5852 5855 5859 5863 5866 5869 5872 5874 5876 5878 5879 5880 5881 5882 5882 5883 5883 5883 5884 5883 5883 5883 5883 5882 5882 5882
5892 5891 5889 5887 5884 5882 5882 5879 5875 5871 5867 5863 5859 5854 5850 5846 5843 5842 5841 5841 5842 5844 5846 5848 5852 5856 5860 5864 5867 5870 5872 5874 5875 5877 5879 5880 5881 5881 5881 5882 5883 5883 5883 5883 5883 5883 5882 5882 5882
5890 5888 5887 5885 5883 5880 5879 5876 5873 5869 5865 5861 5857 5853 5849 5845 5843 5841 5839 5839 5840 5842 5843 5845 5848 5853 5857 5861 5865 5867 5870 5872 5873 5875 5877 5878 5879 5880 5880 5881 5882 5882 5882 5883 5883 5883 5882 5882 5882
5887 5886 5885 5883 5881 5879 5876 5874 5872 5868 5864 5860 5856 5852 5848 5844 5841 5838 5836 5835 5837 5839 5841 5843 5846 5851 5855 5859 5862 5865 5867 5870 5871 5873 5875 5877 5878 5879 5880 5881 5881 5882 5882 5882 5882 5882 5882 5882 5882
5884 5884 5883 5882 5880 5877 5874 5872 5870 5867 5864 5860 5855 5851 5847 5843 5840 5838 5835 5833 5834 5836 5838 5841 5842 5848 5852 5856 5859 5862 5865 5868 5869 5871 5873 5875 5876 5877 5879 5880 5881 5881 5882 5882 5882 5882 5882 5882 5881
5882 5882 5882 5880 5878 5875 5872 5871 5868 5865 5862 5858 5854 5850 5847 5843 5840 5838 5836 5834 5833 5834 5837 5840 5843 5847 5850 5854 5857 5860 5863 5865 5868 5870 5872 5874 5875 5876 5878 5879 5880 5881 5881 5882 5882 5882 5882 5882 5881
5879 5880 5879 5878 5876 5873 5871 5869 5867 5864 5861 5857 5853 5850 5847 5843 5840 5837 5835 5834 5833 5834 5837 5839 5842 5845 5849 5852 5855 5858 5861 5863 5866 5868 5870 5872 5874 5875 5877 5878 5879 5880 5881 5881 5882 5882 5882 5881 5881
5876 5877 5876 5875 5874 5871 5870 5867 5865 5862 5860 5856 5852 5849 5846 5843 5839 5837 5835 5834 5834 5834 5836 5838 5841 5844 5847 5850 5853 5856 5859 5861 5864 5867 5869 5871 5872 5874 5875 5876 5878 5879 5879 5880 5880 5881 5881 5881 5881
5873 5873 5873 5872 5871 5869 5867 5864 5863 5859 5857 5854 5851 5847 5844 5842 5839 5837 5835 5835 5834 5835 5835 5837 5839 5842 5845 5849 5851 5854 5857 5860 5863 5865 5867 5869 5871 5873 5874 5875 5876 5877 5878 5879 5879 5879 5879 5879 5879
5869 5870 5869 5869 5868 5867 5864 5862 5860 5857 5856 5852 5849 5846 5843 5841 5839 5837 5836 5835 5835 5835 5835 5836 5838 5841 5844 5847 5850 5853 5856 5858 5861 5864 5866 5868 5869 5871 5872 5873 5874 5875 5876 5876 5877 5877 5877 5877 5877
5866 5867 5866 5865 5865 5863 5861 5859 5858 5855 5853 5851 5848 5845 5842 5839 5838 5838 5837 5836 5835 5835 5835 5836 5838 5840 5843 5846 5849 5852 5855 5857 5860 5862 5864 5866 5867 5869 5870 5871 5872 5873 5874 5874 5874 5874 5874 5875 5875
5863 5864 5864 5862 5861 5860 5858 5856 5856 5853 5851 5849 5847 5844 5842 5839 5838 5838 5837 5837 5836 5836 5836 5836 5837 5840 5843 5845 5848 5851 5853 5856 5858 5860 5862 5864 5865 5867 5868 5869 5870 5870 5871 5871 5871 5871 5871 5871 5871
5859 5859 5860 5859 5857 5856 5855 5854 5853 5851 5850 5848 5846 5843 5842 5840 5839 5838 5838 5838 5837 5836 5836 5837 5838 5840 5842 5844 5846 5849 5851 5854 5856 5858 5860 5861 5862 5864 5865 5866 5867 5867 5867 5868 5868 5868 5868 5868 5867
5855 5855 5855 5855 5854 5853 5852 5851 5851 5849 5848 5847 5845 5843 5842 5840 5839 5839 5838 5838 5837 5837 5837 5838 5838 5840 5841 5843 5845 5847 5849 5851 5853 5855 5857 5858 5859 5860 5861 5862 5863 5863 5864 5864 5864 5864 5863 5863 5863
5851 5851 5851 5851 5851 5850 5848 5850 5848 5847 5847 5846 5844 5842 5841 5840 5839 5838 5838 5838 5838 5838 5838 5838 5838 5840 5842 5843 5845 5846 5848 5849 5851 5853 5854 5855 5856 5857 5857 5858 5859 5859 5859 5859 5859 5859 5858 5858 5857
5845 5846 5847 5847 5847 5846 5845 5848 5845 5844 5844 5843 5842 5841 5840 5840 5839 5838 5837 5838 5838 5838 5838 5838 5839 5840 5841 5842 5843 5844 5845 5847 5848 5849 5850 5851 5852 5852 5853 5853 5854 5854 5854 5854 5854 5853 5853 5852 5851